Trapani, Italy

7:22 PM CEST on June 26, 2017 (GMT +0200)
Birgi Mil

Weather History for LICT - December, 2012

Change the Weather History Date:

Thursday, December 6, 2012

  Actual Average Record
Temperature  
Mean Temperature 57 °F -  
Max Temperature 61 °F 61 °F 69 °F (2004)
Min Temperature 53 °F 49 °F 42 °F (2007)
Degree Days  
Heating Degree Days 8    
Growing Degree Days 7 (Base 50)    
Moisture  
Dew Point 44 °F    
Average Humidity 61    
Maximum Humidity 82    
Minimum Humidity 43    
Precipitation  
Precipitation 0.03 in 0.08 in - ()
Sea Level Pressure  
Sea Level Pressure 29.88 in    
Wind  
Wind Speed 19 mph ()    
Max Wind Speed 29 mph    
Max Gust Speed 43 mph    
Visibility 6.6 miles    
Events Rain    
Averages and records for this station are not official NWS values.
T = Trace of Precipitation, MM = Missing Value Source: Averaged Metar Reports

Daily Weather History Graph

Daily Weather History Graph

Search for Another Location

Airport or City:

Trip Planner

Search our weather history database for the weather conditions in past years. The results will help you decide how hot, cold, wet, or windy it might be!

Date:

Astronomy

Dec. 06, 2012 Rise Set
Actual Time 7:11 AM CET 4:50 PM CET
Civil Twilight 6:42 AM CET 5:19 PM CET
Nautical Twilight 6:09 AM CET 5:52 PM CET
Astronomical Twilight 5:37 AM CET 6:24 PM CET
Moon No Moon Rise 12:01 PM CET (12/6)
Length of Visible Light 10h 37m
Length of Day
9h 38m
Waning Gibbous, 52% of the Moon is Illuminated
Dec 6
Waning Gibbous
Dec 6
Last Quarter
Dec 13
New
Dec 20
First Quarter
Dec 28
Full

Hourly Weather History & Observations

Time (CET) Temp. Dew Point Humidity Pressure Visibility Wind Dir Wind Speed Gust Speed Precip Events Conditions
12:55 AM 53.6 °F 48.2 °F 82% 29.83 in 6.2 mi West 17.3 mph - N/A   Scattered Clouds
1:00 AM 54 °F 48 °F 72% 29.84 in 7 mi West 17.3 mph - -   Partly Cloudy
1:55 AM 57.2 °F 46.4 °F 67% 29.83 in 6.2 mi WNW 25.3 mph - N/A   Partly Cloudy
2:55 AM 55.4 °F 48.2 °F 77% 29.83 in 6.2 mi WNW 28.8 mph - N/A   Scattered Clouds
3:55 AM 57.2 °F 44.6 °F 63% 29.83 in 6.2 mi WNW 28.8 mph - N/A   Scattered Clouds
4:55 AM 57.2 °F 42.8 °F 59% 29.83 in 6.2 mi WNW 28.8 mph - N/A   Scattered Clouds
5:55 AM 55.4 °F 39.2 °F 54% 29.83 in 6.2 mi WNW 18.4 mph - N/A   Partly Cloudy
6:55 AM 55.4 °F 42.8 °F 63% 29.86 in 6.2 mi WNW 17.3 mph 28.8 mph N/A   Mostly Cloudy
7:00 AM 56 °F 42 °F 50% 29.86 in 9 mi WNW 23.0 mph - -   Mostly Cloudy
7:55 AM 57.2 °F 41.0 °F 55% 29.86 in 6.2 mi WNW 20.7 mph - N/A   Scattered Clouds
8:55 AM 57.2 °F 42.8 °F 59% 29.86 in 6.2 mi WNW 20.7 mph - N/A   Scattered Clouds
9:55 AM 59.0 °F 42.8 °F 55% 29.89 in 6.2 mi WNW 17.3 mph - N/A   Scattered Clouds
10:55 AM 60.8 °F 42.8 °F 52% 29.89 in 6.2 mi WNW 20.7 mph - N/A   Scattered Clouds
11:55 AM 60.8 °F 42.8 °F 52% 29.89 in 6.2 mi WNW 25.3 mph - N/A   Scattered Clouds
12:55 PM 59.0 °F 46.4 °F 63% 29.86 in 6.2 mi West 23.0 mph - N/A   Scattered Clouds
1:00 PM 59 °F 46 °F 53% 29.88 in 12 mi West 23.0 mph - -   Partly Cloudy
1:34 PM 59.0 °F 46.4 °F 63% 29.86 in 6.2 mi WNW 26.5 mph 42.6 mph N/A Rain Light Rain
1:55 PM 53.6 °F 48.2 °F 82% 29.89 in 6.2 mi West 21.9 mph 33.4 mph N/A Rain Light Rain
2:55 PM 59.0 °F 46.4 °F 63% 29.86 in 6.2 mi WNW 21.9 mph - N/A   Scattered Clouds
3:55 PM 59.0 °F 42.8 °F 55% 29.89 in 6.2 mi WNW 23.0 mph - N/A   Scattered Clouds
4:55 PM 55.4 °F 44.6 °F 67% 29.89 in 6.2 mi NW 25.3 mph - N/A Rain Light Rain
5:55 PM 57.2 °F 42.8 °F 59% 29.89 in 6.2 mi NW 18.4 mph - N/A   Scattered Clouds
6:55 PM 57.2 °F 41.0 °F 55% 29.92 in 6.2 mi NW 16.1 mph - N/A   Scattered Clouds
7:00 PM 57 °F 41 °F 43% 29.92 in 7 mi NW 16.1 mph - -   Partly Cloudy
7:55 PM 55.4 °F 42.8 °F 63% 29.92 in 6.2 mi NW 17.3 mph - N/A   Scattered Clouds
8:55 PM 55.4 °F 41.0 °F 58% 29.95 in 6.2 mi NNW 12.7 mph - N/A   Scattered Clouds
9:55 PM 55.4 °F 39.2 °F 54% 29.95 in 6.2 mi NW 9.2 mph - N/A   Scattered Clouds
10:55 PM 55.4 °F 39.2 °F 54% 29.95 in 6.2 mi WNW 12.7 mph - N/A   Scattered Clouds
11:55 PM 55.4 °F 42.8 °F 63% 29.98 in 6.2 mi WNW 13.8 mph - N/A   Scattered Clouds